SSYMA

Sistema Integrado de Gestión de Seguridad, Salud Ocupacional y Medio Ambiente


Procedimientos de Administración del Sistema

Documentos Varios

Procedimientos de Control Ambiental

Documentos Varios

Formatos

Documentos Internos

Documentos Varios


MSDS Aprobadas


  1. 1531868876441GF-MP - 1009A - Aceite para motores diesel VDS-3 15W40.pdf
  2. 1531868876441GF-MP - 1045A - Slurrex MA (Slurrex Gasificable).pdf
  3. 1531868876441GF-MP - 1055A - Adhesivo super VF 2600.pdf
  4. 1531868876441GF-MP - 1066A - Esmalte Pato Blanco.pdf
  5. 1531868876441GF-MP - 1072A - Thinner acrilico standard.pdf
  6. 1531868876441GF-MP - 1085A - Soldadura Tenacito-80.pdf
  7. 1531868876441GF-MP - 1089A - Soldadura Inox AW.pdf
  8. 1531868876441GF-MP - 108A - Cemento solvente CPVC Oatey.pdf
  9. 1531868876441GF-MP - 1107A - Spotcheck penetrant SKL-SP2.pdf
  10. 1531868876441GF-MP - 111A - Antisol S.pdf
  11. 1531868876441GF-MP - 111B - Antisol S.pdf
  12. 1531868876441GF-MP - 113A - Esmalte sintetico pintor blanco.pdf
  13. 1531868876441GF-MP - 113B - Esmalte sintetico pintor blanco.pdf
  14. 1531868876441GF-MP - 1156A - Scotch ( TM ) Sellador aislante 1602 (Rojo).pdf
  15. 1531868876441GF-MP - 1167A - Sulfhidrato de sodio - NaSH (de Renasa).pdf
  16. 1531868876441GF-MP - 122D - Cemento portland Argos.pdf
  17. 1531868876441GF-MP - 1256A - Bolas Cer�micas King�s MineMate ZR320.pdf
  18. 1531868876441GF-MP - 1268A - Arcair.pdf
  19. 1531868876441GF-MP - 1298A - Shell Omala S4 GX 220.pdf
  20. 1531868876441GF-MP - 12A - Magnafloc 10.pdf
  21. 1531868876441GF-MP - 1315A - UCAR � Extruded Graphite Shapes.pdf
  22. 1531868876441GF-MP - 1359A - Wirtgen Group Special Gear Oil 85W-90.pdf
  23. 1531868876441GF-MP - 1361A - Wirtgen Group High-Performance Gear Oil 220.pdf
  24. 1531868876441GF-MP - 1362A - WG Hight Hidraulic Oil HVLP 46.pdf
  25. 1531868876441GF-MP - 1379A - Valvoline Cerulean #2 Grasa.pdf
  26. 1531868876441GF-MP - 1403A - Komatsu 15W-40 LOW ASH.pdf
  27. 1531868876441GF-MP - 1404A - Shell Spirax S2 A 85W-140.pdf
  28. 1531868876441GF-MP - 1407A - Shell Air Tool Oil S2 A 150.pdf
  29. 1531868876441GF-MP - 1408A - Shell Corena S4 R 68.pdf
  30. 1531868876441GF-MP - 1409A - Nexo Ultra ELC-N 50-50.pdf
  31. 1531868876441GF-MP - 140A - Loctite 569.pdf
  32. 1531868876441GF-MP - 1414A - Shell Spirax S2 ALS 80W90.pdf
  33. 1531868876441GF-MP - 1415A - Shell Spirax S6 AXME 75W-90.pdf
  34. 1531868876441GF-MP - 1417A - Shell Spirax S4 CX 50.pdf
  35. 1531868876441GF-MP - 1438A - Shell Gadus S3 V460D 2.pdf
  36. 1531868876441GF-MP - 1453A - Esmalte Epoxico Titanic.pdf
  37. 1531868876441GF-MP - 1500A - Novomax Bioblock 22.pdf
  38. 1531868876441GF-MP - 1517A - Nalco � DVS4O005.pdf
  39. 1531868876441GF-MP - 1548A - RingFree.pdf
  40. 1531868876441GF-MP - 1549A - MC-C1844.pdf
  41. 1531868876441GF-MP - 1550A - ACUMER 9000.pdf
  42. 1531868876441GF-MP - 1551A - ACUMER 9141 (Base Bulk).pdf
  43. 1531868876441GF-MP - 1552A - ACUMER 9300 Polymer.pdf
  44. 1531868876441GF-MP - 1553A - ACUMER 9400 Polymer.pdf
  45. 1531868876441GF-MP - 1556A - DP-Suspension A.pdf
  46. 1531868876441GF-MP - 1559A - Removedor Veloz X7000.pdf
  47. 1531868876441GF-MP - 1560A - Jet Duramastic ESM 930.pdf
  48. 1531868876441GF-MP - 1561A - DP-Lubricant Brown.pdf
  49. 1531868876441GF-MP - 1562A - Silicona Kryzzal.pdf
  50. 1531868876441GF-MP - 1563A - LGPE2.pdf
  51. 1531868876441GF-MP - 1564A - Aceite 20W50.pdf
  52. 1531868876441GF-MP - 1565A - Superfloc RH 4810.pdf
  53. 1531868876441GF-MP - 1566A - Flopaam RP-610.pdf
  54. 1531868876441GF-MP - 1567A - Aero 9865 Promoter.pdf
  55. 1531868876441GF-MP - 1568A - Amalie Pro HP Syn Blend SAE 5W-30.pdf
  56. 1531868876441GF-MP - 1569A - Lubricante SULLUBE.pdf
  57. 1531868876441GF-MP - 1570A - Esmalte epoxico alta duracion.pdf
  58. 1531868876441GF-MP - 1571A - Gloss X3.pdf
  59. 1531868876441GF-MP - 1571B - Gloss X3.pdf
  60. 1531868876441GF-MP - 1572A - Barniz T-81.pdf
  61. 1531868876441GF-MP - 1572B - Barniz T-81.pdf
  62. 1531868876441GF-MP - 1573A - Cola sintetica champion.pdf
  63. 1531868876441GF-MP - 1575A - Fast Laca Selladora.pdf
  64. 1531868876441GF-MP - 1576A - Lava vajilla Sapolio.pdf
  65. 1531868876441GF-MP - 1577A - Sellador 150 Blanco.pdf
  66. 1531868876441GF-MP - 1578A - Supercito 7018R.pdf
  67. 1531868876441GF-MP - 1579A - Chema Top.pdf
  68. 1531868876441GF-MP - 1580A - Biosanit.pdf
  69. 1531868876441GF-MP - 1581A - MC-XF104.pdf
  70. 1531868876441GF-MP - 1582A - Cellocord P.pdf
  71. 1531868876441GF-MP - 1583A - Disolvente ep�xico- Recubrimientos industriales y marinos..pdf
  72. 1531868876441GF-MP - 1584A - Pintura para trafico maestro.pdf
  73. 1531868876441GF-MP - 1584B - Pintura para trafico maestro.pdf
  74. 1531868876441GF-MP - 1585A - EM.AGUA (Microorganismos Eficaces).pdf
  75. 1531868876441GF-MP - 1586A - Novomax Eco-Drain y Eco Drain Plus (Polvo).pdf
  76. 1531868876441GF-MP - 1587A - Gearbox oil 80W90 VOLVO 97305.pdf
  77. 1531868876441GF-MP - 1588A - Shell Corena S4 R 32.pdf
  78. 1531868876441GF-MP - 1589A - Vencelatex Latex Verde Glamour Huamanga.pdf
  79. 1531868876441GF-MP - 1590A - Citodur 600.pdf
  80. 1531868876441GF-MP - 1591A - Esmalte Sint�tico Maestro.pdf
  81. 1531868876441GF-MP - 1592A - Spray Zinc claro perfect.pdf
  82. 1531868876441GF-MP - 1593A - Pasta mural Anypsa.pdf
  83. 1531868876441GF-MP - 1594A - Maestro Thinner Acr�lico Automotriz Reforzado AC-350.pdf
  84. 1531868876441GF-MP - 1595A - Latex Acr�lico Satinado Blanco.pdf
  85. 1531868876441GF-MP - 1596A - S-S 440 Transparente silicona neutra.pdf
  86. 1531868876441GF-MP - 1598A - Diluyente Ep�xico (Dideval).pdf
  87. 1531868876441GF-MP - 1599A - Chamfecord.pdf
  88. 1531868876441GF-MP - 1600A - Catalizador Vulcaflex.pdf
  89. 1531868876441GF-MP - 164A - Gasohol 90 octanos.pdf
  90. 1531868876441GF-MP - 164B - Gasohol 90 octanos.pdf
  91. 1531868876441GF-MP - 180A - Supercito - Supercito 18.pdf
  92. 1531868876441GF-MP - 182A - Cellocorp AP.pdf
  93. 1531868876441GF-MP - 183A - Gasolina 84 octanos.pdf
  94. 1531868876441GF-MP - 18A - Xantato Amilico de Potasio.pdf
  95. 1531868876441GF-MP - 202A - Sikaflex 221.pdf
  96. 1531868876441GF-MP - 225A - Sika grout 212.pdf
  97. 1531868876441GF-MP - 227A - Pintura para trafico.pdf
  98. 1531868876441GF-MP - 227B - Pintura para trafico.pdf
  99. 1531868876441GF-MP - 259B - Thinner acrilico (adelgazador).pdf
  100. 1531868876441GF-MP - 279A - Citofonte.pdf
  101. 1531868876441GF-MP - 282B - Electrical contact & parts cleaner 11 oz.pdf
  102. 1531868876441GF-MP - 283A - Loctite 271- trabador de roscas de alta resistencia.pdf
  103. 1531868876441GF-MP - 288A - 620 Compuesto retenedor alta temperatura.pdf
  104. 1531868876441GF-MP - 289B - Disolvente ep�xico- Recubrimientos industriales y marinos.pdf
  105. 1531868876441GF-MP - 28A - Cal Viva (Oxido de Calcio).pdf
  106. 1531868876441GF-MP - 28B -Cal Viva (Oxido de Calcio).pdf
  107. 1531868876441GF-MP - 28C-Cal Viva (Oxido de Calcio).pdf
  108. 1531868876441GF-MP - 31A - Mobil DTE 25.pdf
  109. 1531868876441GF-MP - 359A - Cordon detonante (Exsacord).pdf
  110. 1531868876441GF-MP - 370A - Mobil delvac MX 15W-40.pdf
  111. 1531868876441GF-MP - 372A - Alcohol isopropilico 70%.pdf
  112. 1531868876441GF-MP - 372B - Alcohol isopropilico 70%.pdf
  113. 1531868876441GF-MP - 374A - Limpiador removedores SKC-S Spotcheck.pdf
  114. 1531868876441GF-MP - 375A - Spotcheck developer SKD-S2.pdf
  115. 1531868876441GF-MP - 37A - Mobilgear 600 XP 150.pdf
  116. 1531868876441GF-MP - 402A - Loctite 518.pdf
  117. 1531868876441GF-MP - 404A - Loctite 277.pdf
  118. 1531868876441GF-MP - 407A - Loctite 609.pdf
  119. 1531868876441GF-MP - 41A - Mobilux EP 2.pdf
  120. 1531868876441GF-MP - 426A - Sikadur 32 gel - Componente A.pdf
  121. 1531868876441GF-MP - 427A - Sikadur 32 gel - Componente B.pdf
  122. 1531868876441GF-MP - 452A - Chamfercord, supercorte.pdf
  123. 1531868876441GF-MP - 475A - Sikaflex 11FC-Plus colores.pdf
  124. 1531868876441GF-MP - 487A - Cemento tipo MS.pdf
  125. 1531868876441GF-MP - 488A - Sikament 290N.pdf
  126. 1531868876441GF-MP - 496A - Pegamento asfaltico pisopak.pdf
  127. 1531868876441GF-MP - 497A - Bentonita s�dica granulada.pdf
  128. 1531868876441GF-MP - 499A - Sika Boom.pdf
  129. 1531868876441GF-MP - 509A - Sikaflex 2C NS EZ Mix - Comp A.pdf
  130. 1531868876441GF-MP - 510A - Sikaflex 2C NS EZ Mix - Comp B.pdf
  131. 1531868876441GF-MP - 552A - Silicon RTV transparente superflex.pdf
  132. 1531868876441GF-MP - 562C - Gel Sanitizante 6 x 1000 ml.pdf
  133. 1531868876441GF-MP - 575B - Agua destilada.pdf
  134. 1531868876441GF-MP - 621A - Terochap.pdf
  135. 1531868876441GF-MP - 638A - CU-800 Cobre.pdf
  136. 1531868876441GF-MP - 651A - Novec ( TM ) Limpiador de contacto.pdf
  137. 1531868876441GF-MP - 65A - Hipoclorito de sodio al 5por ciento - Clorox.pdf
  138. 1531868876441GF-MP - 689A - Diesel B5.pdf
  139. 1531868876441GF-MP - 689C - Petroleo Diesel B5 S-50.pdf
  140. 1531868876441GF-MP - 68A - Pintura Spray Abro.pdf
  141. 1531868876441GF-MP - 68B - Pintura Spray Abro.pdf
  142. 1531868876441GF-MP - 748A - Solvo-Rust Super Penetrating Oil.pdf
  143. 1531868876441GF-MP - 750A - Exsaline.pdf
  144. 1531868876441GF-MP - 780A - Cemento portland tipo Ico.pdf
  145. 1531868876441GF-MP - 84A - WD-40 en aerosol.pdf
  146. 1531868876441GF-MP - 854A -Ancotreat 5690i.pdf
  147. 1531868876441GF-MP - 87B - Gas Licuado de Petr�leo (Gas Propano + Butano).pdf
  148. 1531868876441GF-MP - 914A - Detonador no electrico (Exsanel).pdf
  149. 1531868876441GF-MP - 918A - Trioxido de hierro (Fe2O3-Ocre).pdf
  150. 1531868876441GF-MP - 949A - Zenacryl base Zincromato 55BZ Verde.pdf
  151. 1531868876441GF-MP - 968A - Pegamento Celima gris interiores.pdf
  152. 1531868876441GF-MP - 979A - Inox 29-9.pdf
  153. 1531868876441GF-MP - 980A - Sikasil AC.pdf
  154. 1531868876441GF-MP - 992A - Masilla Bonflex.pdf